Weather Roundup
Issued by NWS Springfield, MO

Home | Current Version | Previous Version | Text Only | Print | Product List | Glossary On
Versions: 1 2 3 4 5 6 7 8 9 10 11 12 13 14 15 16 17 18 19 20 21 22 23 24 25 26 27 28 29 30 31 32 33 34 35 36 37 38 39 40 41 42 43 44 45 46 47 48 49 50
000
NZUS99 KSGF 201759
HRRSGF

HOURLY WEATHER
NATIONAL WEATHER SERVICE SPRINGFIELD MO
100 PM CDT WED AUG 20 2014

......SGF CWA......

CITY           SKY/WX    TMP DP  RH WIND       PRES   REMARKS
SPRINGFIELD    SUNNY     94  67  41 SW17G25   29.98F HX  97
6HR MIN TEMP:  72; 6HR MAX TEMP:  94;

JOPLIN         SUNNY     92  68  45 SW14      29.95F HX  96
6HR MIN TEMP:  73; 6HR MAX TEMP:  93;

WEST PLAINS    SUNNY     91  68  46 SW8       30.03F HX  95
6HR MIN TEMP:  71; 6HR MAX TEMP:  91;

ROLLA          MOSUNNY   89  70  53 SW5       29.98S HX  94
6HR MIN TEMP:  71; 6HR MAX TEMP:  89;

OSAGE BEACH    MOSUNNY   91  70  49 SW12      29.96S HX  97
BRANSON        MOSUNNY   95  68  41 SW8       30.02F HX  99

......SURROUNDING SGF CWA......

CITY           SKY/WX    TMP DP  RH WIND       PRES   REMARKS
CHANUTE        SUNNY     93  69  45 S20       29.91F HX  98
PARSONS        SUNNY     90  70  51 SW13G23   29.93F HX  95
COFFEYVILLE    MOSUNNY   91  71  51 S20G28    29.91F HX  97
EMPORIA        MOSUNNY   91  67  44 S20       29.87F HX  94
SILOAM SPRINGS MOSUNNY   86  68  54 S12G22    30.02S
HARRISON AR    SUNNY     88  71  57 S10       30.03S HX  94
NEAR YELLVILLE SUNNY     93  66  40 S8        30.00S HX  96

......KANSAS AND MISSOURI......

CITY           SKY/WX    TMP DP  RH WIND       PRES   REMARKS
KANSAS CTY INT MOSUNNY   90  73  57 S10       29.90R HX  98
DOWNTOWN KC    MOSUNNY   91  70  49 S12       29.88S HX  96
COLUMBIA       PTSUNNY   88  73  61 W6        29.96F HX  95
SEDALIA        SUNNY     90  71  53 SW12      29.95F HX  96
ST JOSEPH      SUNNY     88  74  63 S6        29.87F HX  96
ST LOUIS       CLOUDY    89  74  60 VRB3      29.98S HX  98
SPIRIT OF STL  CLOUDY    88  73  61 W6        29.96S HX  95
KIRKSVILLE     CLOUDY    82  71  69 E8        29.95F
WICHITA        MOSUNNY   92  67  43 S20G29    29.86F HX  95
TOPEKA         SUNNY     92  71  50 SW12      29.86F HX  98
OLATHE         MOSUNNY   89  70  53 S9        29.90F HX  94

......TENNESSEE......

CITY           SKY/WX    TMP DP  RH WIND       PRES   REMARKS
MEMPHIS        MOSUNNY   93  71  48 SW12G23   30.03S HX 100
NASHVILLE      PTSUNNY   94  74  52 W8        30.00R HX 104

......ARKANSAS.......

CITY           SKY/WX    TMP DP  RH WIND       PRES   REMARKS
FAYETTEVILLE   SUNNY     87  64  46 SW12G21   30.02F
FT SMITH       SUNNY     91  66  43 SW16      29.99F HX  93
LITTLE ROCK    SUNNY     90  70  51 S10       30.02F HX  95

......OKLAHOMA.......

CITY           SKY/WX    TMP DP  RH WIND       PRES   REMARKS
TULSA          PTSUNNY   89  65  44 S21G29    29.92F HX  91
PONCA CITY     SUNNY     91  70  49 S10G23    29.89F HX  96
MCALESTER      PTSUNNY   86  72  62 SW9G16    29.99F HX  92
OKLAHOMA CITY  SUNNY     92  63  38 S20G26    29.93S HX  93

......IOWA............

CITY           SKY/WX    TMP DP  RH WIND       PRES   REMARKS
DES MOINES     LGT RAIN  74  68  81 S8        29.86R
QUAD CITIES    CLOUDY    79  68  69 SE3       29.90F

......ILLINOIS........

CITY           SKY/WX    TMP DP  RH WIND       PRES   REMARKS
QUINCY         CLOUDY    80  72  76 SE8       29.95F
CHICAGO        PTSUNNY   83  64  52 SW12G20   29.91S



USA.gov is the U.S. government's official web portal to all federal, state and local government web resources and services.